OE3UKW Weather Reports


time (UTC)temp
C
wind
direction
speed
KPH
gust
KPH
rain 1hr
cm
rain 24hr
cm
rain mn
cm
humidity
%
barometer
mb
20260905212113 18 302 11.3 17.7 0.00 0.20 0.20 57 1023.3
20260905211113 19 254 12.9 17.7 0.00 0.20 0.20 57 1023.2
20260905210113 19 258 12.9 24.1 0.00 0.20 0.20 56 1022.9
20260905205113 19 236 14.5 20.9 0.00 0.20 0.20 56 1022.9
20260905204113 19 269 11.3 19.3 0.00 0.20 0.20 56 1022.8
20260905203113 19 235 16.1 22.5 0.00 0.20 0.20 56 1022.7
20260905202113 18 248 17.7 20.9 0.00 0.20 0.20 56 1022.6
20260905201113 18 268 14.5 19.3 0.00 0.20 0.20 55 1022.6
20260905200113 18 241 12.9 17.7 0.00 0.20 0.20 55 1022.5
20260905195113 18 261 11.3 19.3 0.00 0.20 0.20 55 1022.3
20260905194113 18 246 11.3 16.1 0.00 0.20 0.20 54 1022.4
20260905193113 18 244 9.7 16.1 0.00 0.20 0.20 54 1022.3
20260905192113 18 255 11.3 14.5 0.00 0.20 0.20 52 1022.2
20260905191113 18 244 11.3 14.5 0.00 0.20 0.20 51 1022.2
20260905190113 18 240 9.7 14.5 0.00 0.20 0.20 48 1022.1
20260905185113 19 239 11.3 14.5 0.00 0.20 0.20 47 1022.0
20260905184113 19 242 9.7 12.9 0.00 0.20 0.20 45 1021.9
20260905183113 20 234 9.7 12.9 0.00 0.20 0.20 44 1021.8
20260905182113 20 239 8.0 12.9 0.00 0.20 0.20 43 1021.7
20260905181113 21 265 9.7 12.9 0.00 0.20 0.20 41 1021.7
20260905180113 21 274 8.0 12.9 0.00 0.20 0.20 40 1021.5
20260905175113 21 290 9.7 16.1 0.00 0.20 0.20 39 1021.4
20260905174113 22 277 9.7 14.5 0.00 0.20 0.20 38 1021.4
20260905173113 22 261 11.3 14.5 0.00 0.20 0.20 37 1021.3
20260905172113 22 274 9.7 16.1 0.00 0.20 0.20 35 1021.1
20260905171113 23 284 12.9 17.7 0.00 0.20 0.20 35 1021.2
20260905170113 23 273 16.1 25.7 0.00 0.20 0.20 34 1021.2
20260905165112 23 289 19.3 25.7 0.00 0.20 0.20 34 1021.0
20260905164112 24 285 12.9 22.5 0.00 0.20 0.20 34 1020.9
20260905163112 24 317 22.5 30.6 0.00 0.20 0.20 32 1020.8
20260905162112 25 306 22.5 33.8 0.00 0.20 0.20 31 1020.8
20260905161112 25 299 17.7 24.1 0.00 0.20 0.20 31 1020.8
20260905160112 25 271 27.4 35.4 0.00 0.20 0.20 30 1020.7
20260905155112 25 308 17.7 24.1 0.00 0.20 0.20 31 1020.7
20260905154112 25 265 14.5 27.4 0.00 0.20 0.20 31 1020.5
20260905153112 25 297 16.1 33.8 0.00 0.20 0.20 30 1020.5
20260905152112 25 306 20.9 30.6 0.00 0.20 0.20 32 1020.3
20260905151112 25 286 30.6 41.8 0.00 0.20 0.20 30 1020.3
20260905150112 25 248 25.7 40.2 0.00 0.20 0.20 31 1020.4
20260905145112 26 293 22.5 37.0 0.00 0.20 0.20 31 1020.4
20260905144112 26 254 12.9 33.8 0.00 0.20 0.20 32 1020.3
20260905143112 26 265 11.3 30.6 0.00 0.20 0.20 32 1020.3
20260905142112 26 278 16.1 27.4 0.00 0.20 0.20 33 1020.3
20260905141112 25 272 20.9 30.6 0.00 0.20 0.20 35 1020.3
20260905140112 25 231 22.5 29.0 0.00 0.20 0.20 42 1020.4
20260905135112 25 254 19.3 29.0 0.00 0.20 0.20 42 1020.3
20260905134112 25 238 20.9 33.8 0.00 0.20 0.20 43 1020.5
20260905133112 25 261 16.1 29.0 0.00 0.20 0.20 44 1020.6
20260905132112 24 250 19.3 29.0 0.00 0.20 0.20 47 1020.4
20260905131112 24 248 25.7 37.0 0.00 0.20 0.20 47 1020.6
20260905130112 24 252 12.9 24.1 0.00 0.20 0.20 48 1020.6
20260905125112 24 253 19.3 29.0 0.00 0.20 0.20 48 1020.6
20260905124112 24 227 17.7 32.2 0.00 0.20 0.20 46 1020.6
20260905123112 25 232 9.7 22.5 0.00 0.20 0.20 47 1020.6
20260905122112 24 235 14.5 30.6 0.03 0.20 0.20 49 1020.7
20260905121112 24 275 12.9 25.7 0.03 0.20 0.20 50 1020.8
20260905120112 23 257 17.7 29.0 0.03 0.20 0.20 50 1020.7
20260905115112 23 303 17.7 30.6 0.03 0.20 0.20 51 1020.9
20260905114112 23 257 12.9 29.0 0.03 0.20 0.20 52 1020.9
20260905113112 23 292 19.3 30.6 0.03 0.20 0.20 53 1021.0
20260905112112 22 259 22.5 35.4 0.00 0.18 0.18 55 1021.2
20260905111117 22 284 29.0 41.8 0.00 0.18 0.18 55 1021.4
20260905110111 21 292 24.1 33.8 0.00 0.18 0.18 58 1021.2
20260905105112 21 296 25.7 41.8 0.00 0.18 0.18 60 1021.2
20260905104112 20 270 17.7 30.6 0.00 0.18 0.18 61 1021.2
20260905103112 20 223 20.9 37.0 0.00 0.18 0.18 62 1021.4
20260905102111 20 275 17.7 29.0 0.00 0.18 0.18 64 1021.1
20260905101111 18 261 16.1 24.1 0.00 0.18 0.18 65 1021.1
20260905100112 18 268 12.9 35.4 0.00 0.18 0.18 67 1021.2
20260905095111 17 258 9.7 37.0 0.00 0.18 0.18 68 1021.3
20260905094111 17 277 19.3 29.0 0.00 0.18 0.18 70 1021.3
20260905093111 16 309 12.9 27.4 0.03 0.18 0.18 71 1021.4
20260905092111 16 278 12.9 19.3 0.05 0.18 0.18 70 1021.3
20260905091111 16 270 6.4 16.1 0.05 0.18 0.18 70 1021.2
20260905090111 16 284 9.7 12.9 0.05 0.18 0.18 70 1021.3
20260905085111 16 299 8.0 11.3 0.05 0.18 0.18 70 1021.4
20260905084111 16 296 4.8 12.9 0.05 0.18 0.18 70 1021.7
20260905083111 16 355 4.8 8.0 0.03 0.15 0.15 70 1021.7
20260905082111 15 254 4.8 14.5 0.00 0.15 0.15 69 1021.4
20260905081111 15 227 11.3 22.5 0.03 0.15 0.15 69 1021.6
20260905080111 15 227 14.5 19.3 0.08 0.15 0.15 69 1021.4
20260905075111 16 235 11.3 12.9 0.13 0.15 0.15 68 1021.4
20260905074111 16 225 9.7 16.1 0.15 0.15 0.15 68 1021.5
20260905073111 16 236 9.7 12.9 0.15 0.15 0.15 67 1021.5
20260905072111 16 238 6.4 8.0 0.15 0.15 0.15 66 1021.0
20260905071111 16 203 9.7 12.9 0.13 0.13 0.13 64 1021.1
20260905070111 17 220 9.7 12.9 0.05 0.05 0.05 62 1021.6
20260905065111 17 316 8.0 14.5 0.03 0.03 0.03 60 1021.0
20260905064111 17 296 11.3 22.5 0.00 0.00 0.00 57 1021.5
20260905063111 18 296 12.9 22.5 0.00 0.00 0.00 57 1021.1
20260905062111 18 311 14.5 25.7 0.00 0.00 0.00 56 1020.6
20260905061111 18 333 16.1 29.0 0.00 0.00 0.00 55 1020.3
20260905060111 19 317 17.7 27.4 0.00 0.00 0.00 52 1020.6
20260905055111 20 342 24.1 33.8 0.00 0.00 0.00 47 1020.2
20260905054111 20 321 14.5 27.4 0.00 0.00 0.00 47 1019.9
20260905053110 20 336 19.3 32.2 0.00 0.00 0.00 48 1019.1
20260905052111 20 9 24.1 37.0 0.00 0.00 0.00 48 1018.9
20260905051110 20 309 29.0 37.0 0.00 0.00 0.00 47 1018.5
20260905050110 20 360 25.7 40.2 0.00 0.00 0.00 47 1018.2
20260905045110 20 338 20.9 30.6 0.00 0.00 0.00 48 1018.6
20260905044110 20 321 20.9 29.0 0.00 0.00 0.00 49 1018.7
20260905043111 20 326 17.7 30.6 0.00 0.00 0.00 49 1018.5
20260905042110 20 296 14.5 19.3 0.00 0.00 0.00 49 1018.2
20260905041110 20 308 12.9 19.3 0.00 0.00 0.00 48 1017.8
20260905040110 21 310 14.5 25.7 0.00 0.00 0.00 47 1017.9
20260905035110 21 333 20.9 30.6 0.00 0.00 0.00 47 1017.8
20260905034110 21 338 19.3 30.6 0.00 0.00 0.00 47 1017.4
20260905033110 21 343 16.1 24.1 0.00 0.00 0.00 47 1016.8
20260905032110 21 331 19.3 25.7 0.00 0.00 0.00 48 1016.8
20260905031110 22 342 24.1 40.2 0.00 0.00 0.00 47 1016.4
20260905030110 22 334 30.6 38.6 0.00 0.00 0.00 47 1016.0
20260905025110 23 346 32.2 49.9 0.00 0.00 0.00 47 1015.5
20260905024110 23 327 30.6 43.5 0.00 0.00 0.00 47 1015.6
20260905023110 22 288 14.5 24.1 0.00 0.00 0.00 48 1015.3
20260905022110 21 296 11.3 24.1 0.00 0.00 0.00 52 1015.3
20260905021110 21 273 8.0 12.9 0.00 0.00 0.00 53 1014.6
20260905020110 20 233 8.0 17.7 0.00 0.00 0.00 54 1014.4
20260905015110 19 244 16.1 22.5 0.00 0.00 0.00 58 1014.6
20260905014110 18 259 1.6 8.0 0.00 0.00 0.00 60 1014.3
20260905013110 18 271 4.8 9.7 0.00 0.00 0.00 61 1014.3
20260905012110 18 279 0.0 3.2 0.00 0.00 0.00 62 1014.1
20260905011110 17 279 1.6 3.2 0.00 0.00 0.00 62 1014.1
20260905005110 17 186 0.0 4.8 0.00 0.00 0.00 63 1014.2
20260905004110 17 188 1.6 3.2 0.00 0.00 0.00 63 1014.1
20260905003110 17 200 0.0 0.0 0.00 0.00 0.00 63 1014.2
20260905002110 17 200 0.0 0.0 0.00 0.00 0.00 63 1014.1
20260905001110 17 200 0.0 0.0 0.00 0.00 0.00 63 1014.0
20260905000110 17 200 0.0 0.0 0.00 0.00 0.00 63 1014.0
20260904235109 17 200 0.0 0.0 0.00 0.00 0.00 63 1013.8
20260904234110 17 204 3.2 3.2 0.00 0.00 0.00 62 1013.8
20260904233110 17 205 1.6 3.2 0.00 0.00 0.00 62 1013.9
20260904232110 17 132 1.6 8.0 0.00 0.00 0.00 62 1013.8
20260904231109 17 132 8.0 11.3 0.00 0.00 0.00 62 1013.8
20260904230110 17 320 1.6 3.2 0.00 0.00 0.00 61 1013.5
20260904225110 17 333 6.4 6.4 0.00 0.00 0.00 61 1013.3
20260904224110 18 340 4.8 6.4 0.00 0.00 0.00 61 1013.6
20260904223109 18 341 0.0 0.0 0.00 0.00 0.00 60 1013.5
20260904222110 18 341 0.0 0.0 0.00 0.00 0.00 59 1013.5
20260904221109 18 341 0.0 0.0 0.00 0.00 0.00 59 1013.5
20260904220110 18 341 0.0 0.0 0.00 0.00 0.00 57 1013.5
20260904215109 19 341 0.0 0.0 0.00 0.00 0.00 57 1013.6
20260904214109 19 341 0.0 0.0 0.00 0.00 0.00 56 1013.6
20260904213109 20 341 0.0 0.0 0.00 0.00 0.00 55 1013.7